Location: Ida Center
(41.8662°N, 83.5713°W)
Time: 01:14:08
(UTC+00:00)

ATLAS 5 CENTAUR R/B - Pass Details

Date: 17 November 2019
Orbit: 563 x 1096 km, 63.3° (Epoch: 29 November)

Event Time Altitude Azimuth Distance (km) Brightness Sun altitude
Rises 23:42:39 0° 318° (NW) 3,411 5.8 -16.9°
Reaches altitude 10° 23:45:06 10° 311° (NW) 2,552 5.2 -17.3°
Maximum altitude 23:50:44 43° 242° (WSW) 1,339 3.7 -18.3°
Drops below altitude 10° 23:57:01 10° 174° (S) 2,843 5.0 -19.5°
Sets 23:59:54 0° 168° (SSE) 3,839 5.6 -20.0°
